CST,Max TemperatureF,Mean TemperatureF,Min TemperatureF,Max Dew PointF,MeanDew PointF,Min DewpointF,Max Humidity, Mean Humidity, Min Humidity, Max Sea Level PressureIn, Mean Sea Level PressureIn, Min Sea Level PressureIn, Max VisibilityMiles, Mean VisibilityMiles, Min VisibilityMiles, Max Wind SpeedMPH, Mean Wind SpeedMPH, Max Gust SpeedMPH,PrecipitationIn, CloudCover, Events, WindDirDegrees
2013-2-1,,,,,,,,,,,,,,,,,,,,,,
2013-2-2,10,4,-3,1,-1,-6,86,76,57,30.18,30.08,30.03,10,9,7,7,4,,0.00,7,Snow,258
2013-2-3,15,8,1,9,4,-2,92,81,62,30.05,30.01,29.96,10,8,2,17,3,,0.00,7,Snow,262
2013-2-4,21,14,8,9,6,-4,92,77,33,30.04,30.00,29.95,10,7,2,8,3,,0.00,7,Snow,41
2013-2-5,28,16,1,23,15,-2,92,81,69,30.13,29.88,29.69,10,7,0,16,9,,0.00,7,Snow,282
2013-2-6,26,8,-9,25,12,-15,93,84,74,30.23,30.13,30.00,10,8,1,12,4,,0.02,6,Snow,110
2013-2-7,32,29,24,30,26,21,93,90,86,30.19,30.03,29.96,10,3,1,10,5,,0.11,8,Snow,15
2013-2-8,25,12,0,12,7,-4,88,74,57,30.40,30.38,30.34,10,10,6,8,4,,0.07,0,,324
2013-2-9,27,12,-2,24,11,-6,93,87,78,30.40,30.27,30.06,10,9,2,12,5,,0.00,6,Snow,142
2013-2-10,41,32,24,39,32,23,100,94,85,30.04,29.53,29.32,10,7,0,18,9,20,0.07,8,Fog-Rain,129
2013-2-11,35,29,23,34,27,17,93,87,74,30.01,29.57,29.31,10,9,2,28,12,36,0.04,8,Rain-Snow,248
2013-2-12,32,26,17,21,16,14,93,77,60,30.09,30.00,29.84,10,10,10,16,10,,0.00,5,Snow,248
2013-2-13,37,26,14,32,21,10,100,81,60,29.83,29.73,29.60,10,8,2,10,2,,0.00,5,Rain-Snow,219
2013-2-14,34,28,18,33,27,8,100,85,60,30.10,29.70,29.55,10,7,2,21,10,28,0.08,8,Rain-Snow,308
2013-2-15,21,14,6,7,4,-1,79,66,50,30.27,30.21,30.12,10,10,10,14,9,,0.00,2,,292
2013-2-16,18,8,-5,4,1,-9,84,70,45,30.24,30.21,30.18,10,10,10,12,5,,0.00,5,Snow,314
2013-2-17,25,7,-10,18,2,-15,85,68,50,30.23,30.10,29.86,10,10,10,14,5,,0.00,2,,133
2013-2-18,41,30,20,32,25,18,94,83,64,29.82,29.58,29.52,10,10,6,26,12,31,0.00,5,Rain-Snow,266
2013-2-19,19,12,5,16,6,-6,87,76,57,30.27,29.80,29.61,10,6,0,23,20,33,0.01,7,Rain-Snow,286
2013-2-20,24,12,0,9,2,-6,85,65,46,30.43,30.39,30.29,10,10,10,15,10,,0.00,3,,299
2013-2-21,23,12,0,21,9,-3,93,81,63,30.50,30.36,30.10,10,9,4,17,5,26,0.00,6,Snow,82
2013-2-22,28,24,21,25,21,18,93,88,80,30.09,29.93,29.82,10,4,0,18,11,23,0.05,8,Fog-Snow,69
2013-2-23,29,22,16,21,19,14,89,80,66,29.96,29.87,29.83,10,9,2,13,9,,0.01,7,Snow,265
2013-2-24,37,22,8,23,12,6,94,85,52,30.14,30.05,29.98,10,6,0,7,3,,0.00,1,Fog,303
2013-2-25,36,25,14,27,21,13,93,77,60,30.16,30.12,30.07,10,10,8,6,2,,0.00,6,,138
2013-2-26,37,28,18,25,23,16,94,80,60,30.06,29.88,29.76,10,9,3,23,8,28,0.00,6,Snow,45
2013-2-27,33,30,28,30,28,27,93,87,75,29.89,29.78,29.71,10,6,0,17,12,22,0.11,8,Snow,341
2013-2-28,32,29,26,27,23,16,86,75,59,30.18,30.01,29.89,10,10,10,16,11,22,0.00,7,Snow,344